TimeMST,TemperatureF,Dew PointF,Humidity,Sea Level PressureIn,VisibilityMPH,Wind Direction,Wind SpeedMPH,Gust SpeedMPH,PrecipitationIn,Events,Conditions,WindDirDegrees,DateUTC
12:53 AM,30.9,27.0,85,30.24,10.0,WNW,5.8,-,N/A,,Partly Cloudy,290,2012-11-15 07:53:00
1:53 AM,28.9,26.1,89,30.26,10.0,West,9.2,-,N/A,,Partly Cloudy,270,2012-11-15 08:53:00
2:53 AM,23.0,21.0,92,30.31,10.0,NE,3.5,-,N/A,,Clear,40,2012-11-15 09:53:00
3:53 AM,19.0,16.0,88,30.34,10.0,Calm,Calm,-,N/A,,Clear,0,2012-11-15 10:53:00
4:53 AM,24.1,23.0,96,30.33,10.0,SW,5.8,-,N/A,,Clear,220,2012-11-15 11:53:00
5:53 AM,19.9,17.1,89,30.36,10.0,Calm,Calm,-,N/A,,Clear,0,2012-11-15 12:53:00
6:53 AM,21.0,19.0,92,30.39,10.0,Calm,Calm,-,N/A,,Clear,0,2012-11-15 13:53:00
7:53 AM,25.0,23.0,92,30.39,10.0,SW,9.2,-,N/A,,Clear,220,2012-11-15 14:53:00
8:45 AM,26.6,24.8,93,30.35,5.0,SW,8.1,-,N/A,,Partly Cloudy,230,2012-11-15 15:45:00
8:53 AM,27.0,26.1,96,30.40,8.0,SW,8.1,-,N/A,,Partly Cloudy,220,2012-11-15 15:53:00
9:53 AM,33.1,28.0,82,30.37,10.0,WSW,5.8,-,N/A,,Partly Cloudy,240,2012-11-15 16:53:00
10:53 AM,37.0,24.1,59,30.35,10.0,SW,6.9,-,N/A,,Clear,220,2012-11-15 17:53:00
11:53 AM,39.9,25.0,55,30.29,10.0,SW,6.9,-,N/A,,Clear,230,2012-11-15 18:53:00
12:53 PM,42.1,25.0,51,30.27,10.0,West,11.5,-,N/A,,Partly Cloudy,260,2012-11-15 19:53:00
1:53 PM,42.1,26.1,53,30.26,10.0,SW,15.0,-,N/A,,Mostly Cloudy,220,2012-11-15 20:53:00
2:53 PM,42.1,27.0,55,30.28,10.0,SW,11.5,-,N/A,,Partly Cloudy,220,2012-11-15 21:53:00
3:53 PM,42.1,26.1,53,30.30,10.0,WSW,15.0,-,N/A,,Scattered Clouds,240,2012-11-15 22:53:00
4:53 PM,37.9,26.1,62,30.31,10.0,WSW,9.2,-,N/A,,Clear,240,2012-11-15 23:53:00
5:53 PM,37.0,26.1,65,30.35,10.0,West,9.2,-,N/A,,Partly Cloudy,270,2012-11-16 00:53:00
6:53 PM,32.0,24.1,73,30.37,10.0,SW,8.1,-,N/A,,Clear,230,2012-11-16 01:53:00
7:53 PM,32.0,24.1,73,30.35,10.0,West,8.1,-,N/A,,Clear,260,2012-11-16 02:53:00
8:53 PM,30.9,23.0,72,30.36,10.0,West,5.8,-,N/A,,Clear,270,2012-11-16 03:53:00
9:53 PM,30.9,23.0,72,30.32,10.0,WSW,5.8,-,N/A,,Clear,240,2012-11-16 04:53:00
10:53 PM,30.0,21.9,72,30.29,10.0,WSW,6.9,-,N/A,,Clear,240,2012-11-16 05:53:00
11:53 PM,28.0,21.0,75,30.27,10.0,West,5.8,-,N/A,,Clear,260,2012-11-16 06:53:00